カタログに戻る

WESTFORD NEEDLES

運用中PO
NORAD 3255·DEBRIS·🇺🇸 United States

打ち上げ May 9, 1963 から Vandenberg Space Force Base

Loading…

次のパス (今後24時間)

TLE

最新Source: Space-Track

元期: Sep 13, 2026, 03:44 UTC

1  3255U 63014BV  26256.15615714  .00000347  00000-0  15570+0 0  9991
2  3255  87.3561 160.9428 0185944  93.9418 268.2715  8.66828129389047

AllMySatでWESTFORD NEEDLESをリアルタイム追跡

Download on the App Store